Location: Gunnison Valley Observatory
(38.5087°N, 106.9386°W)
Time: 10:48:16
(UTC-06:00)

Amateur Radio Satellites - All Passes

Search period start: 29 July 2014 10:18
Search period end: 30 July 2014 10:18
Location: Gunnison Valley Observatory, 38.5087°N, 106.9386°W

Satellite Date Start Highest point End Downlink Frequencies (MHz)
Time Altitude Azimuth
FUNcube-1 29 Jul 10:28:48 10:30:46 13° 92° (E) 10:32:43 145.950 - 145.970 MHz USB
HO-68 29 Jul 10:45:25 10:52:32 72° 289° (WNW) 10:59:37 435.675 MHz FM
UKube-1 29 Jul 10:56:01 11:00:14 51° 287° (WNW) 11:04:26 145.840 MHz, 145.915 MHz
Sapphire 29 Jul 10:56:40 11:01:59 58° 247° (WSW) 11:07:17 437.095 MHz 1200 baud AX-25 AFSK
PCSat 29 Jul 11:30:40 11:35:10 27° 252° (WSW) 11:39:39 145.825 MHz
Oscar 11 29 Jul 11:41:07 11:44:55 30° 290° (WNW) 11:48:43 145.825 FM, Beacon 2401.500 USB
FUNcube-1 29 Jul 12:03:24 12:07:23 46° 287° (WNW) 12:11:26 145.950 - 145.970 MHz USB
SO-50 29 Jul 12:29:12 12:33:30 52° 117° (ESE) 12:37:54 436.795 FM
HO-68 29 Jul 12:36:03 12:38:59 13° 307° (NW) 12:41:55 435.675 MHz FM
Oscar 16 29 Jul 12:38:43 12:41:53 17° 63° (ENE) 12:45:03 437.025 USB, Beacon 2401.1428
ITAMSAT 1 29 Jul 13:01:53 13:03:55 12° 60° (ENE) 13:05:58 435.822 SSB
RS-15 29 Jul 13:06:43 13:17:17 50° 111° (ESE) 13:27:35 29.354 - 29.394 USB, Beacon 29.352 USB
KITSAT 1 29 Jul 13:13:19 13:17:01 14° 28° (NNE) 13:20:44 435.175 FM
Uribyol 2 29 Jul 13:19:23 13:23:00 20° 64° (ENE) 13:26:38 436.500 FM
AO-27 29 Jul 13:19:28 13:23:02 19° 64° (ENE) 13:26:36 436.795 MHz FM
Gurwin Techsat 1B 29 Jul 13:45:58 13:48:27 14° 61° (ENE) 13:50:55 435.225 FM
Oscar 19 29 Jul 13:47:08 13:52:12 72° 74° (ENE) 13:57:19 437.125 CW, 437.150 USB
AO-Echo 29 Jul 13:59:25 14:04:26 45° 71° (ENE) 14:09:29 ?
JAS-1B 29 Jul 14:00:22 14:08:33 41° 63° (ENE) 14:17:28 435.800 - 435.900 CW/SSB
SO-50 29 Jul 14:11:12 14:14:22 19° 315° (NW) 14:17:36 436.795 FM
Oscar 16 29 Jul 14:15:43 14:20:44 57° 259° (W) 14:25:48 437.025 USB, Beacon 2401.1428
UOSAT-12 29 Jul 14:27:01 14:31:30 59° 117° (ESE) 14:36:07 437.025 FM, 437.400 FM
ITAMSAT 1 29 Jul 14:37:28 14:42:41 82° 257° (WSW) 14:47:56 435.822 SSB
AO-27 29 Jul 14:57:02 15:02:07 52° 260° (W) 15:07:13 436.795 MHz FM
Uribyol 2 29 Jul 14:57:03 15:02:05 50° 260° (W) 15:07:08 436.500 FM
TMSAT-1 29 Jul 14:57:58 15:02:59 45° 71° (ENE) 15:08:01 436.925 FM
KITSAT 1 29 Jul 15:06:58 15:14:44 48° 53° (NE) 15:22:26 435.175 FM
RS-15 29 Jul 15:19:06 15:29:39 47° 312° (NW) 15:40:07 29.354 - 29.394 USB, Beacon 29.352 USB
Gurwin Techsat 1B 29 Jul 15:22:25 15:27:43 77° 257° (WSW) 15:33:03 435.225 FM
Oscar 19 29 Jul 15:30:12 15:32:03 12° 270° (W) 15:33:54 437.125 CW, 437.150 USB
AO-7 29 Jul 15:38:08 15:45:44 41° 62° (ENE) 15:53:21 29.400 - 29.500 MHz
AO-Echo 29 Jul 15:39:22 15:43:21 22° 267° (W) 15:47:23 ?
JAS-1B 29 Jul 15:50:13 15:58:40 51° 263° (W) 16:08:09 435.800 - 435.900 CW/SSB
Uosat F 29 Jul 15:57:25 16:02:02 37° 70° (ENE) 16:06:40 435.120 FM
UOSAT-12 29 Jul 16:08:52 16:12:03 18° 316° (NW) 16:15:17 437.025 FM, 437.400 FM
Saudisat 1A 29 Jul 16:10:08 16:14:06 32° 51° (NE) 16:18:03 436.775 MHz
TMSAT-1 29 Jul 16:39:11 16:43:05 21° 267° (W) 16:47:01 436.925 FM
OPAL 29 Jul 16:52:21 16:57:11 43° 101° (E) 17:02:04 ?
JAS-2 29 Jul 16:59:58 17:05:01 19° 61° (ENE) 17:09:51 435.800 - 435.900 CW/SSB, 435.910 FM
KITSAT 1 29 Jul 17:02:41 17:09:55 38° 252° (WSW) 17:17:08 435.175 FM
AO-7 29 Jul 17:30:31 17:38:22 44° 260° (W) 17:46:18 29.400 - 29.500 MHz
Uosat F 29 Jul 17:36:54 17:40:53 23° 265° (W) 17:44:54 435.120 FM
RS-15 29 Jul 17:38:47 17:45:46 18° 343° (NNW) 17:52:46 29.354 - 29.394 USB, Beacon 29.352 USB
Saudisat 1A 29 Jul 17:49:57 17:53:33 25° 248° (WSW) 17:57:07 436.775 MHz
Hamsat 29 Jul 17:55:56 17:59:50 40° 73° (ENE) 18:03:47 145.90 MHz
OPAL 29 Jul 18:31:56 18:35:47 22° 296° (WNW) 18:39:39 ?
JAS-2 29 Jul 18:41:23 18:49:14 86° 256° (WSW) 18:56:38 435.800 - 435.900 CW/SSB, 435.910 FM
STRAND 1 29 Jul 19:16:54 19:21:26 31° 97° (E) 19:25:55 ?
SO-67 29 Jul 19:27:37 19:31:03 70° 77° (ENE) 19:34:31 435.3500 MHz FM
HO-68 29 Jul 19:28:58 19:32:20 14° 53° (NE) 19:35:41 435.675 MHz FM
Hamsat 29 Jul 19:33:38 19:35:59 15° 268° (W) 19:38:22 145.90 MHz
RS-15 29 Jul 19:56:43 20:04:13 20° 21° (NNE) 20:11:48 29.354 - 29.394 USB, Beacon 29.352 USB
UKube-1 29 Jul 20:17:43 20:18:32 11° 62° (ENE) 20:19:22 145.840 MHz, 145.915 MHz
MaSat-1 29 Jul 20:26:40 20:29:14 17° 100° (E) 20:32:02 437.345 MHz
JAS-2 29 Jul 20:30:42 20:34:54 15° 271° (W) 20:39:01 435.800 - 435.900 CW/SSB, 435.910 FM
STRAND 1 29 Jul 20:56:11 21:00:30 28° 293° (WNW) 21:04:48 ?
Oscar 11 29 Jul 21:00:12 21:02:38 15° 65° (ENE) 21:05:04 145.825 FM, Beacon 2401.500 USB
SO-50 29 Jul 21:02:06 21:06:27 34° 52° (NE) 21:10:50 436.795 FM
HO-68 29 Jul 21:11:42 21:18:51 76° 72° (ENE) 21:26:01 435.675 MHz FM
UKube-1 29 Jul 21:49:46 21:54:07 71° 258° (WSW) 21:58:30 145.840 MHz, 145.915 MHz
MaSat-1 29 Jul 22:02:10 22:06:02 41° 301° (WNW) 22:10:30 437.345 MHz
RS-15 29 Jul 22:09:05 22:19:52 55° 51° (NE) 22:30:59 29.354 - 29.394 USB, Beacon 29.352 USB
Oscar 11 29 Jul 22:34:17 22:38:25 46° 261° (W) 22:42:34 145.825 FM, Beacon 2401.500 USB
SO-50 29 Jul 22:42:51 22:46:54 28° 248° (WSW) 22:50:58 436.795 FM
FUNcube-1 29 Jul 22:58:07 23:02:26 71° 258° (WSW) 23:06:41 145.950 - 145.970 MHz USB
UOSAT-12 29 Jul 22:58:08 23:02:30 35° 52° (NE) 23:06:48 437.025 FM, 437.400 FM
HO-68 29 Jul 23:02:31 23:07:10 18° 268° (W) 23:11:50 435.675 MHz FM
ISS 29 Jul 23:12:53 23:16:08 54° 137° (SE) 23:19:24 145.800 FM
AO-40 29 Jul 23:54:24 03:07:14 37° 191° (S) 08:29:13 Beacon 2401.320
Sapphire 29 Jul 23:55:03 23:59:08 22° 106° (ESE) 00:03:14 437.095 MHz 1200 baud AX-25 AFSK
RS-15 30 Jul 00:21:49 00:31:56 43° 251° (WSW) 00:42:28 29.354 - 29.394 USB, Beacon 29.352 USB
PCSat 30 Jul 00:27:03 00:32:12 48° 112° (ESE) 00:37:24 145.825 MHz
UOSAT-12 30 Jul 00:38:37 00:42:29 25° 248° (WSW) 00:46:17 437.025 FM, 437.400 FM
ISS 30 Jul 00:50:26 00:53:03 21° 334° (NNW) 00:55:41 145.800 FM
Sapphire 30 Jul 01:37:01 01:42:12 47° 303° (WNW) 01:47:26 437.095 MHz 1200 baud AX-25 AFSK
JAS-1B 30 Jul 01:53:22 01:55:24 11° 80° (E) 01:57:21 435.800 - 435.900 CW/SSB
Oscar 19 30 Jul 02:00:39 02:05:06 29° 96° (E) 02:09:32 437.125 CW, 437.150 USB
AO-Echo 30 Jul 02:09:55 02:12:48 15° 91° (E) 02:15:38 ?
PCSat 30 Jul 02:11:28 02:15:50 25° 310° (NW) 02:20:15 145.825 MHz
Oscar 16 30 Jul 02:28:46 02:33:51 57° 101° (E) 02:38:56 437.025 USB, Beacon 2401.1428
ITAMSAT 1 30 Jul 02:52:07 02:56:59 40° 98° (E) 03:01:47 435.822 SSB
Uribyol 2 30 Jul 03:11:05 03:16:14 66° 102° (ESE) 03:21:20 436.500 FM
AO-27 30 Jul 03:11:27 03:16:36 64° 102° (ESE) 03:21:43 436.795 MHz FM
TMSAT-1 30 Jul 03:16:04 03:19:55 20° 93° (E) 03:23:45 436.925 FM
JAS-1B 30 Jul 03:38:37 03:47:52 68° 101° (E) 03:55:39 435.800 - 435.900 CW/SSB
Oscar 19 30 Jul 03:39:51 03:44:23 32° 291° (WNW) 03:48:56 437.125 CW, 437.150 USB
Gurwin Techsat 1B 30 Jul 03:40:15 03:45:23 48° 99° (E) 03:50:29 435.225 FM
AO-7 30 Jul 03:45:13 03:47:18 11° 88° (E) 03:49:23 29.400 - 29.500 MHz
AO-Echo 30 Jul 03:47:01 03:51:57 54° 287° (WNW) 03:56:41 ?
OPAL 30 Jul 04:06:02 04:10:55 66° 72° (ENE) 04:15:50 ?
ISS 30 Jul 04:07:26 04:08:48 12° 15° (NNE) 04:10:09 145.800 FM
Uosat F 30 Jul 04:08:35 04:10:35 12° 91° (E) 04:12:35 435.120 FM
Oscar 16 30 Jul 04:09:27 04:12:43 17° 297° (WNW) 04:16:00 437.025 USB, Beacon 2401.1428
ITAMSAT 1 30 Jul 04:32:10 04:36:13 24° 294° (WNW) 04:40:14 435.822 SSB
Uribyol 2 30 Jul 04:52:18 04:55:07 15° 298° (WNW) 04:57:57 436.500 FM
AO-27 30 Jul 04:52:35 04:55:33 16° 298° (WNW) 04:58:31 436.795 MHz FM
TMSAT-1 30 Jul 04:55:00 05:00:03 46° 289° (WNW) 05:05:04 436.925 FM
PANSAT 30 Jul 04:59:24 05:01:41 15° 170° (S) 05:03:58 not established
Gurwin Techsat 1B 30 Jul 05:21:08 05:24:58 21° 295° (WNW) 05:28:48 435.225 FM
JAS-1B 30 Jul 05:29:57 05:37:28 29° 302° (WNW) 05:44:11 435.800 - 435.900 CW/SSB
AO-7 30 Jul 05:33:03 05:41:23 71° 105° (ESE) 05:49:38 29.400 - 29.500 MHz
KITSAT 1 30 Jul 05:33:51 05:41:08 39° 108° (ESE) 05:48:27 435.175 FM
ISS 30 Jul 05:42:59 05:46:13 42° 34° (NE) 05:49:26 145.800 FM
Uosat F 30 Jul 05:44:50 05:49:49 68° 286° (WNW) 05:54:46 435.120 FM
OPAL 30 Jul 05:48:10 05:50:14 13° 267° (W) 05:52:18 ?
JAS-2 30 Jul 05:58:13 05:58:55 10° 86° (E) 05:59:37 435.800 - 435.900 CW/SSB, 435.910 FM
Saudisat 1A 30 Jul 06:18:29 06:19:34 11° 107° (ESE) 06:20:39 436.775 MHz
MaSat-1 30 Jul 06:21:36 06:26:30 36° 58° (ENE) 06:31:07 437.345 MHz
STRAND 1 30 Jul 06:31:22 06:36:08 40° 70° (ENE) 06:40:55 ?
PANSAT 30 Jul 06:38:33 06:41:15 18° 183° (S) 06:43:57 not established
Hamsat 30 Jul 07:18:30 07:22:50 77° 284° (WNW) 07:27:09 145.90 MHz
ISS 30 Jul 07:20:15 07:22:43 19° 229° (SW) 07:25:11 145.800 FM
AO-7 30 Jul 07:26:57 07:33:25 26° 304° (WNW) 07:39:52 29.400 - 29.500 MHz
KITSAT 1 30 Jul 07:28:37 07:36:21 47° 307° (NW) 07:44:08 435.175 FM
JAS-2 30 Jul 07:39:06 07:44:58 83° 285° (WNW) 07:50:17 435.800 - 435.900 CW/SSB, 435.910 FM
Saudisat 1A 30 Jul 07:54:09 07:58:33 70° 302° (WNW) 08:02:58 436.775 MHz
MaSat-1 30 Jul 07:59:16 08:03:39 28° 256° (WSW) 08:07:47 437.345 MHz
STRAND 1 30 Jul 08:11:27 08:15:26 22° 266° (W) 08:19:25 ?
PANSAT 30 Jul 08:19:20 08:20:47 12° 195° (SSW) 08:22:13 not established
SO-67 30 Jul 08:25:51 08:29:20 75° 283° (WNW) 08:32:47 435.3500 MHz FM
HO-68 30 Jul 08:43:44 08:47:08 14° 90° (E) 08:50:31 435.675 MHz FM
Sapphire 30 Jul 08:44:11 08:47:31 16° 45° (NE) 08:50:50 437.095 MHz 1200 baud AX-25 AFSK
PCSat 30 Jul 09:16:34 09:21:18 30° 53° (NE) 09:26:00 145.825 MHz
JAS-2 30 Jul 09:27:49 09:28:54 11° 305° (NW) 09:29:57 435.800 - 435.900 CW/SSB, 435.910 FM
KITSAT 1 30 Jul 09:30:24 09:34:05 13° 332° (NNW) 09:37:46 435.175 FM
UKube-1 30 Jul 09:40:19 09:43:39 21° 95° (E) 09:46:57 145.840 MHz, 145.915 MHz
